Regional Weather Roundup
Issued by NWS

Home | Current Version | Previous Version | Text Only | Print | Product List | Glossary On
Versions: 1 2 3 4 5 6 7 8 9 10 11 12 13 14 15 16 17 18 19 20 21 22 23 24 25 26 27 28 29 30 31 32 33 34 35 36 37 38 39 40 41 42 43 44 45 46 47 48 49 50
000
ASUS43 KTOP 190008
RWRKS

WEATHER ROUNDUP FOR KANSAS
NATIONAL WEATHER SERVICE GOODLAND KS
700 PM CDT THU SEP 18 2014

NOTE:  "FAIR" INDICATES FEW OR NO CLOUDS BELOW 12,000 FEET WITH NO
SIGNIFICANT WEATHER AND/OR OBSTRUCTIONS TO VISIBILITY.

KSZ001>006-013>018-027>032-041>047-190100-
NORTHWEST KANSAS

CITY           SKY/WX    TMP DP  RH WIND       PRES   REMARKS
GOODLAND       CLEAR     83  61  47 SE12      29.91S
6HR MIN TEMP:  75; 6HR MAX TEMP:  86;

HILL CITY      CLEAR     80  66  62 NE7       29.87F
6HR MIN TEMP:  67; 6HR MAX TEMP:  82;

RUSSELL        CLEAR     82  61  48 S10       29.86S
6HR MIN TEMP:  78; 6HR MAX TEMP:  85;

$$

KSZ061>065-074>080-084>089-190100-
SOUTHWEST KANSAS

CITY           SKY/WX    TMP DP  RH WIND       PRES   REMARKS
DODGE CITY     CLEAR     84  60  44 S15       29.91S
6HR MIN TEMP:  84; 6HR MAX TEMP:  89; 6HR PCP: TRACE;

ELKHART          N/A     81  58  45 S12         N/A
GARDEN CITY    CLEAR     85  55  35 S15       29.90S
6HR MIN TEMP:  85; 6HR MAX TEMP:  90;

GREAT BEND     CLEAR     84  61  45 S14       29.89R
LIBERAL        CLEAR     84  55  37 S16G22    29.94R
PRATT          CLEAR     82  55  39 S13       29.93R
$$

KSZ066>073-081>083-090>101-190100-
SOUTHEAST KANSAS

CITY           SKY/WX    TMP DP  RH WIND       PRES   REMARKS
CHANUTE        CLEAR     74  66  76 SE6       29.95R
6HR MIN TEMP:  67; 6HR MAX TEMP:  78;

COFFEYVILLE    CLEAR     74  65  73 E6        29.93R
6HR MIN TEMP:  68; 6HR MAX TEMP:  76; 6HR PCP:  0.01;

HUTCHINSON     CLEAR     85  57  38 SE9       29.90R
6HR MIN TEMP:  82; 6HR MAX TEMP:  90;

MEDICINE LODGE   N/A     85  61  44 S8        29.89R
NEWTON         CLEAR     75  61  60 E10       29.96R
PARSONS        CLEAR     74  65  73 VRB3      29.96R
6HR MIN TEMP:  67; 6HR MAX TEMP:  76;

WICHITA INTL   PTCLDY    79  59  50 E18       29.91R
6HR MIN TEMP:  81; 6HR MAX TEMP:  90;

WICHITA JABRA  CLEAR     75  62  64 E12       29.93R
6HR MIN TEMP:  75; 6HR MAX TEMP:  88;

WICHITA MCCONL CLEAR     76  62  60 E15       29.93R
WINFIELD       CLEAR     76  62  62 E13       29.94R
6HR MIN TEMP:  76; 6HR MAX TEMP:  88;

$$

KSZ007>012-019>026-033>040-048>060-102>105-190100-
NORTHEAST KANSAS

CITY           SKY/WX    TMP DP  RH WIND       PRES   REMARKS
CONCORDIA      CLEAR     77  64  64 SE8       29.90S
6HR MIN TEMP:  73; 6HR MAX TEMP:  81;

EMPORIA        CLEAR     73  66  78 E12       29.95R
6HR MIN TEMP:  68; 6HR MAX TEMP:  78;

LAWRENCE       PTCLDY    66  61  84 E9        29.99S HAZE
6HR MIN TEMP:  66; 6HR MAX TEMP:  69;

MANHATTAN      CLEAR     71  63  75 E15       29.94R
6HR MIN TEMP:  71; 6HR MAX TEMP:  81;

MARYSVILLE     PTCLDY    66  63  88 SE12      29.96R
OLATHE IND     PTCLDY    66  62  87 E6        30.00S
6HR MIN TEMP:  66; 6HR MAX TEMP:  71;

OLATHE EXE     CLOUDY    66  62  87 E9        29.99F
6HR MIN TEMP:  65; 6HR MAX TEMP:  69;

SALINA         CLEAR     82  63  52 E13       29.90R
6HR MIN TEMP:  77; 6HR MAX TEMP:  86;

TOPEKA BILLARD CLOUDY    67  63  87 E9        29.98S
6HR MIN TEMP:  67; 6HR MAX TEMP:  73;

TOPEKA FORBES  CLOUDY    67  62  84 E8        29.97S
6HR MIN TEMP:  67; 6HR MAX TEMP:  72;

$$


USA.gov is the U.S. government's official web portal to all federal, state and local government web resources and services.